Home   Weather   Samara   Past weeks

Flag for Russia Past Weather in Samara, Russia — Yesterday and Last 2 Weeks

Now
54 °F

Partly sunny.


Feels Like: 51 °F
Forecast: 48 / 63 °F
Wind: 8 mph from Southwest

Location: Samara

Current Time: Oct 1, 2016 at 5:59:22 PM

Latest Report: Oct 1, 2016 at 5:30 PM


Visibility: N/A

Pressure: 29.98 "Hg

Humidity: 94%

Dew Point: 52 °F

Location of SamaraLocation

Past Weather in Samara — Graph

°F

Samara Temperature Yesterday

Maximum temperature yesterday: 57 °F (at 2:30 PM)
Minimum temperature yesterday: 45 °F (at 1:30 AM)
Average temperature yesterday: 49 °F

High & Low Weather Summary for the Past Weeks

 TemperatureHumidityPressure
High72 °F (Sep 25, 2:30 PM)100% (Sep 17, 12:30 AM)30.15 "Hg (Sep 17, 12:30 AM)
Low43 °F (Sep 18, 2:00 AM)38% (Sep 25, 2:30 PM)29.65 "Hg (Sep 22, 6:00 AM)
Average52 °F85%29.88 "Hg
* Reported Sep 16 4:00 PM — Oct 1 4:30 PM, Samara, Weather by CustomWeather, © 2016

Note: Actual official high and low records may vary slightly from our data, if they occured in-between our weather recording intervals... More about our weather records

Advertising

Samara Weather History for the Previous 24 Hours

Scroll right to see more
 ConditionsComfort  
Time TempWeatherWind HumidityBarometerVisibility
4:30 PM
Sat, Oct 1
54 °FPartly sunny.8 mph94%29.98 "HgN/A
4:00 PM52 °FPartly sunny.8 mph94%29.98 "HgN/A
3:30 PM52 °FPartly sunny.8 mph94%29.98 "HgN/A
3:00 PM52 °FPartly sunny.8 mph94%29.98 "HgN/A
2:30 PM52 °FPartly sunny.10 mph94%29.95 "HgN/A
2:00 PM52 °FPartly sunny.8 mph94%29.95 "Hg5 mi
1:30 PM50 °FDrizzle. Low clouds.10 mph100%29.95 "Hg3 mi
1:00 PM50 °FDrizzle. Low clouds.13 mph94%29.98 "Hg3 mi
12:30 PM50 °FDrizzle. Low clouds.13 mph94%29.98 "Hg2 mi
12:00 PM50 °FLow clouds.13 mph94%29.95 "HgN/A
11:30 AM50 °FLight rain. Partly sunny.13 mph94%29.95 "HgN/A
11:00 AM50 °FLight rain. Partly sunny.15 mph94%29.95 "Hg6 mi
10:00 AM50 °FLight rain. Partly sunny.13 mph88%29.95 "HgN/A
9:30 AM50 °FLight rain. Partly sunny.8 mph88%29.95 "HgN/A
9:00 AM50 °FPartly sunny.6 mph88%29.95 "HgN/A
8:30 AM50 °FScattered clouds.8 mph82%29.95 "HgN/A
8:00 AM50 °FScattered clouds.15 mph82%29.98 "HgN/A
7:30 AM50 °FPassing clouds.13 mph82%29.98 "HgN/A
7:00 AM48 °FPassing clouds.8 mph87%29.98 "HgN/A
6:30 AM48 °FPassing clouds.10 mph87%29.98 "HgN/A
6:00 AM48 °FPassing clouds.10 mph87%29.98 "HgN/A
5:30 AM48 °FPassing clouds.10 mph87%29.98 "HgN/A
5:00 AM48 °FPassing clouds.13 mph87%30.01 "HgN/A
4:30 AM48 °FPassing clouds.10 mph87%30.01 "HgN/A
4:00 AM48 °FPassing clouds.10 mph82%30.01 "HgN/A
3:30 AM46 °FPassing clouds.8 mph87%30.01 "HgN/A
3:00 AM46 °FPassing clouds.8 mph87%30.04 "HgN/A
2:30 AM46 °FFog.6 mph87%30.04 "Hg3 mi
2:00 AM46 °FFog.6 mph87%30.04 "Hg3 mi
1:30 AM46 °FFog.3 mph93%30.04 "Hg3 mi
1:00 AM46 °FFog.6 mph93%30.04 "Hg3 mi
12:30 AM45 °FFog.3 mph93%30.04 "Hg3 mi
12:00 AM46 °FFog.3 mph93%30.04 "Hg3 mi
11:30 PM
Fri, Sep 30
46 °FFog.3 mph93%30.04 "Hg3 mi
11:00 PM48 °FFog.6 mph94%30.04 "Hg3 mi
10:30 PM48 °FFog.6 mph94%30.04 "Hg3 mi
10:00 PM50 °FPassing clouds.8 mph88%30.04 "HgN/A
9:30 PM50 °FPassing clouds.8 mph88%30.04 "HgN/A
9:00 PM50 °FPassing clouds.8 mph88%30.04 "HgN/A
8:30 PM50 °FPassing clouds.8 mph88%30.04 "HgN/A
8:00 PM50 °FPassing clouds.6 mph88%30.04 "HgN/A
7:30 PM52 °FPassing clouds.6 mph82%30.01 "HgN/A
7:00 PM50 °FScattered clouds.6 mph88%30.01 "HgN/A
6:30 PM52 °FScattered clouds.3 mph82%30.01 "HgN/A
6:00 PM54 °FScattered clouds.1 mph77%30.01 "HgN/A
5:30 PM54 °FScattered clouds.8 mph77%30.01 "HgN/A
5:00 PM55 °FScattered clouds.8 mph72%30.01 "HgN/A
Weather by CustomWeather, © 2016

See weather overviewHow to use our weather pages